This is the latest recevied weather packets stored in our database for station/object OH6GKW. If no packets are shown the sender has not sent any weather packets the latest 1 day(s).
| Time | Temp. | Humidity | Pressure | Rain* | Wind** | Luminosity | Snow |
|---|---|---|---|---|---|---|---|
| 1777991013 | 8.33° C | 42% | 998.5 hPa | 0.51 mm | 4.92 m/s, 298° | 463 W/m² | - |
| 1777990724 | 8.89° C | 42% | 998.5 hPa | 0.51 mm | 4.92 m/s, 272° | 472 W/m² | - |
| 1777990420 | 8.89° C | 41% | 998.5 hPa | 0.51 mm | 4.92 m/s, 228° | 480 W/m² | - |
| 1777990112 | 8.89° C | 41% | 998.5 hPa | 0.51 mm | 4.92 m/s, 252° | 489 W/m² | - |
| 1777989826 | 8.89° C | 40% | 998.5 hPa | 0.51 mm | 4.47 m/s, 192° | 498 W/m² | - |
| 1777989516 | 8.89° C | 42% | 998.5 hPa | 0.51 mm | 4.47 m/s, 234° | 509 W/m² | - |
| 1777989213 | 8.89° C | 42% | 998.5 hPa | 0.51 mm | 4.02 m/s, 289° | 484 W/m² | - |
| 1777988937 | 8.89° C | 42% | 998.5 hPa | 0.51 mm | 4.02 m/s, 240° | 524 W/m² | - |
| 1777988629 | 8.89° C | 44% | 998.4 hPa | 0.51 mm | 4.02 m/s, 206° | 537 W/m² | - |
| 1777988324 | 8.33° C | 45% | 998.4 hPa | 0.51 mm | 4.02 m/s, 244° | 544 W/m² | - |
| 1777988019 | 8.33° C | 44% | 998.4 hPa | 0.51 mm | 3.58 m/s, 247° | 533 W/m² | - |
| 1777987709 | 8.33° C | 45% | 998.2 hPa | 0.51 mm | 4.02 m/s, 288° | 428 W/m² | - |
| 1777987422 | 8.33° C | 44% | 998.2 hPa | 0.51 mm | 4.92 m/s, 282° | 264 W/m² | - |
| 1777987114 | 8.33° C | 44% | 998.2 hPa | 0.51 mm | 4.47 m/s, 233° | 588 W/m² | - |
| 1777986824 | 8.89° C | 42% | 998.1 hPa | 0.51 mm | 3.58 m/s, 227° | 537 W/m² | - |
| 1777986523 | 9.44° C | 42% | 998.1 hPa | 0.51 mm | 3.13 m/s, 227° | 591 W/m² | - |
| 1777986229 | 8.89° C | 45% | 998.1 hPa | 0.51 mm | 3.58 m/s, 211° | 595 W/m² | - |
| 1777985919 | 8.89° C | 44% | 998 hPa | 0.51 mm | 3.58 m/s, 244° | 598 W/m² | - |
| 1777985612 | 8.89° C | 45% | 998 hPa | 0.51 mm | 3.58 m/s, 200° | 602 W/m² | - |
| 1777985308 | 8.89° C | 43% | 998 hPa | 0.51 mm | 4.47 m/s, 262° | 604 W/m² | - |
| 1777985022 | 8.33° C | 45% | 997.8 hPa | 0.51 mm | 4.47 m/s, 223° | 329 W/m² | - |
| 1777984714 | 8.89° C | 45% | 997.8 hPa | 0.51 mm | 4.47 m/s, 227° | 616 W/m² | - |
| 1777984429 | 8.89° C | 43% | 997.8 hPa | 0.51 mm | 4.02 m/s, 248° | 621 W/m² | - |
| 1777984120 | 8.89° C | 41% | 997.8 hPa | 0.51 mm | 3.58 m/s, 228° | 628 W/m² | - |
| 1777983809 | 8.89° C | 42% | 997.8 hPa | 0.51 mm | 4.02 m/s, 251° | 633 W/m² | - |
* Rain since midnight (hover to see other rain measurements)
** Current wind speed in m/s (hover to see current wind gust speed)